Wind_Speed
3 3 3 3 4 6 6 6 7 6 7 6 5 5 4 3 4 4 5 5 6 5 5 5 4 5 6 7 8 9 10 9 9 9 8 8 7 6 6 5 5 4 4 4 4 5 5 3 3
6 6 5 5 4 6 7 7 8 8 9 9 8 8 7 6 5 5 5 6 6 6 6 5 5 5 6 7 8 10 10 10 10 10 10 10 9 9 8 8 8 7 7 6 5 5 5 4 2
9 8 8 7 6 8 9 9 10 11 11 11 11 10 9 8 6 6 6 7 7 6 6 6 6 6 7 7 8 9 10 11 11 12 12 12 12 11 11 11 11 11 10 9 8 8 7 6 5
11 10 10 9 10 12 12 12 12 12 13 13 13 12 11 9 8 7 7 7 7 7 7 6 6 7 7 8 9 10 11 12 13 14 14 15 15 14 14 14 14 14 14 13 12 11 11 10 9
12 12 11 11 15 15 15 14 14 13 13 13 12 12 10 9 8 8 8 8 8 8 9 8 9 9 10 11 12 13 14 15 15 16 17 17 18 18 18 18 17 17 17 17 16 16 15 14 13
14 13 12 13 18 17 18 16 15 14 13 12 11 11 10 10 10 10 10 10 10 11 11 11 12 13 14 15 16 17 18 19 20 20 21 21 22 22 22 22 21 21 20 20 20 19 19 18 17
16 15 17 18 20 21 20 18 17 15 13 12 12 12 12 12 12 12 12 12 13 14 15 16 17 18 18 19 20 21 22 23 24 25 25 25 26 27 27 26 25 25 24 23 22 22 22 22 21
17 17 18 21 21 23 22 21 19 17 15 14 13 14 14 14 14 14 14 15 16 17 19 20 21 22 23 24 25 26 27 27 27 28 28 28 29 30 30 30 29 28 27 26 25 25 25 25 25
18 18 19 22 23 24 25 24 22 20 18 17 15 15 16 16 16 16 17 18 19 20 22 23 25 26 27 28 28 29 30 31 31 31 31 32 32 32 32 32 32 31 30 28 27 27 26 26 27
20 19 21 22 23 25 27 26 25 24 23 21 19 18 17 17 18 19 20 21 22 24 25 26 28 29 30 31 32 32 33 33 34 34 34 35 34 34 34 34 34 33 31 31 30 29 28 27 28
22 22 22 22 24 24 27 28 27 27 26 25 23 22 21 21 21 22 23 24 25 27 28 29 29 30 31 32 34 34 32 32 31 31 32 33 34 35 36 36 36 35 33 33 32 31 29 28 28
22 23 23 23 24 24 25 27 28 29 28 28 28 27 26 24 24 25 25 26 27 29 29 30 32 31 32 33 33 31 29 30 30 30 32 33 34 35 37 38 38 37 35 34 33 32 30 29 28
21 22 23 23 23 23 24 25 27 28 29 30 30 30 29 28 27 27 28 28 30 31 31 32 33 34 34 33 31 31 29 29 31 30 32 34 35 36 38 39 39 38 37 36 34 32 31 30 29
20 20 20 21 21 22 22 23 24 26 27 28 30 30 30 29 29 29 30 31 32 33 33 34 35 35 35 35 34 31 31 31 30 30 32 33 35 37 39 41 41 40 39 38 36 34 32 30 29
17 18 19 20 20 21 21 21 22 22 23 25 26 27 28 29 29 30 31 32 32 33 34 35 36 38 37 37 36 33 31 31 30 31 31 33 35 37 38 39 40 40 39 37 36 35 34 32 30
15 14 16 18 18 19 19 20 20 20 21 22 23 25 26 28 28 29 30 31 32 34 35 37 38 40 40 39 37 34 32 31 31 30 30 32 33 34 35 36 38 40 39 37 36 35 34 33 32
9 8 13 16 17 18 18 19 20 19 19 19 20 21 22 23 25 26 28 30 32 34 36 38 39 40 39 38 36 34 32 32 31 31 31 31 31 30 31 34 37 39 39 38 37 35 34 33 33
8 8 12 15 16 17 18 19 20 19 19 19 19 19 20 21 23 26 28 31 34 36 37 38 38 37 37 35 34 32 32 32 32 32 31 30 29 27 27 30 35 37 38 38 37 36 35 34 34
9 8 10 13 14 15 17 18 18 18 17 17 18 19 21 23 25 28 30 33 34 36 36 36 36 35 34 33 33 33 33 33 33 33 31 30 27 25 23 26 31 35 38 38 37 36 35 35 34
7 7 10 12 13 14 15 16 16 16 17 17 19 20 22 25 27 29 31 32 34 34 34 35 35 35 35 34 34 35 35 35 35 34 33 31 28 26 23 23 26 32 36 36 36 36 36 35 35
7 6 10 11 11 11 12 13 13 15 16 17 19 20 22 24 26 28 30 32 33 33 34 35 36 37 37 37 37 37 37 37 37 37 35 34 32 29 27 25 26 28 33 35 35 35 35 35 35
7 8 9 10 10 10 9 13 13 15 16 18 20 22 23 25 27 29 32 34 35 36 36 37 38 39 39 40 40 41 41 41 40 39 39 37 36 34 32 29 29 29 31 33 33 33 35 35 35
8 7 8 9 9 10 10 12 16 16 19 20 22 24 26 28 30 32 34 35 36 37 38 39 39 41 42 42 43 44 44 44 43 42 41 40 39 38 37 36 34 34 34 35 34 34 36 37 37
6 7 8 10 11 12 14 14 19 18 20 23 24 26 28 30 32 34 34 35 36 37 39 40 41 42 44 45 46 46 46 46 46 45 45 44 43 42 42 42 41 40 40 39 39 38 38 38 38
7 8 9 11 11 14 19 18 19 20 22 24 26 28 29 31 32 33 34 35 37 38 40 41 42 43 44 45 45 45 45 45 45 45 45 45 46 46 47 47 47 47 47 46 44 43 42 41 41
8 8 9 10 12 16 20 19 19 21 22 24 25 28 29 31 33 34 35 37 38 39 40 41 42 42 42 42 42 42 42 42 42 43 44 44 45 47 49 50 51 52 52 52 51 50 48 46 45
9 9 10 11 13 13 17 18 18 21 23 24 26 28 29 31 33 35 37 38 40 40 41 41 41 40 40 40 40 39 40 40 40 41 42 44 46 47 49 51 54 55 56 56 56 55 54 52 50
8 9 9 8 10 11 16 19 20 21 23 25 27 28 30 32 35 37 38 40 41 41 41 40 40 40 39 39 39 39 40 41 42 44 45 46 48 49 49 50 52 55 58 60 61 61 60 59 56
6 7 7 8 10 12 13 19 20 22 24 26 28 30 32 34 36 37 39 40 41 41 41 40 40 40 39 39 39 40 42 44 45 47 48 49 51 52 53 54 54 55 57 60 62 64 65 64 63
7 7 8 10 12 13 15 19 20 22 24 27 29 31 33 35 37 39 40 41 42 41 41 41 41 40 39 40 41 42 44 46 48 50 51 53 54 55 57 59 60 60 60 62 63 65 67 67 68
Wind_Direction
288 299 318 329 344 355 347 343 344 346 353 353 354 348 335 321 316 313 309 305 302 303 301 308 324 330 324 315 309 304 302 302 298 293 287 283 280 280 282 285 288 294 301 314 333 344 356 16 35
279 282 283 293 322 318 310 316 322 324 332 332 332 328 317 307 303 308 308 303 303 307 312 322 332 330 322 314 307 302 300 299 296 291 286 282 280 280 280 279 279 277 276 277 286 300 312 319 334
279 279 275 279 284 280 288 299 307 317 322 325 323 317 309 297 294 302 303 305 305 309 317 327 332 326 317 309 303 298 296 294 293 290 288 286 284 283 282 280 277 275 271 268 267 274 282 284 284
275 276 276 276 274 273 279 286 298 307 313 316 314 309 303 294 291 292 293 299 304 311 318 321 325 322 316 310 303 297 294 293 292 292 292 292 290 287 284 280 275 272 270 266 263 264 268 272 273
274 273 273 275 270 274 277 284 291 297 305 308 306 300 297 289 282 283 286 291 297 303 309 309 312 311 309 307 303 299 296 295 294 294 294 294 292 290 287 282 277 272 269 265 262 261 262 264 265
271 271 261 257 267 274 278 284 289 293 299 300 297 290 284 278 275 276 279 284 289 295 300 302 304 303 302 300 299 299 298 297 296 295 294 293 292 290 287 284 278 273 270 266 262 260 259 260 260
267 264 257 258 263 269 274 280 283 288 293 292 289 286 279 272 271 272 275 279 284 289 292 296 297 297 297 296 296 297 297 296 296 293 292 291 290 289 286 283 278 274 270 267 264 261 259 258 258
266 263 258 256 257 261 268 272 277 283 284 284 284 283 281 280 277 277 279 282 287 290 293 295 295 294 293 293 293 294 293 293 293 292 290 288 287 285 283 280 277 274 270 267 264 261 260 258 258
267 262 256 255 254 255 260 265 272 278 280 281 283 284 285 283 283 283 284 286 289 292 296 298 298 297 297 296 295 293 292 291 291 291 289 286 284 282 280 277 274 272 268 266 265 262 260 259 259
269 264 259 257 253 251 255 259 265 271 275 279 282 285 285 284 285 286 286 288 292 295 298 300 300 300 301 301 299 296 295 293 291 289 287 284 282 280 279 275 271 268 264 264 263 262 261 260 260
272 268 263 258 255 252 252 256 260 264 269 275 279 283 285 284 285 286 286 287 290 293 295 297 299 300 302 303 301 299 300 297 293 291 288 284 281 281 278 274 270 265 261 262 262 261 260 260 260
273 269 267 265 263 260 257 258 260 263 266 270 274 277 280 280 281 283 285 286 288 292 294 295 297 298 301 305 306 302 299 298 295 293 289 285 281 280 278 273 268 263 260 259 259 259 259 260 261
272 271 271 272 271 269 266 264 264 265 267 269 271 273 275 275 276 277 280 283 287 290 291 293 295 297 299 303 305 304 301 301 298 296 294 288 285 281 277 270 263 260 258 257 256 256 258 259 260
271 272 274 275 276 276 274 273 270 269 269 269 270 272 272 272 272 274 276 279 284 287 289 291 292 293 296 298 302 302 299 299 300 299 295 291 286 282 277 267 261 258 256 255 252 253 255 256 255
270 272 273 274 277 279 280 279 278 277 275 273 271 270 270 269 269 269 272 277 282 285 288 289 291 293 296 297 300 302 300 298 298 298 297 296 290 283 275 264 258 255 253 253 251 253 252 252 251
269 273 273 275 279 281 283 284 284 283 281 278 275 273 271 269 268 270 273 279 283 286 288 290 291 293 295 297 299 299 298 297 296 298 300 301 295 284 271 261 254 250 251 251 250 253 250 249 248
270 259 270 280 282 285 286 287 287 287 286 283 281 277 274 271 271 274 279 283 286 289 291 292 293 294 296 296 296 296 296 295 295 296 299 302 297 286 268 258 249 248 247 248 249 248 247 246 246
245 259 274 280 283 285 286 286 288 287 286 284 282 279 277 277 279 283 286 289 292 294 295 296 296 297 297 296 295 294 294 295 295 297 298 300 299 286 269 258 248 245 246 247 246 244 244 245 245
261 267 277 285 287 285 285 286 286 284 283 281 280 281 282 284 287 290 292 294 295 296 297 298 299 300 298 296 295 293 293 293 293 296 299 298 297 289 276 260 249 246 247 246 244 243 243 243 243
277 285 289 294 293 288 286 286 286 282 283 285 286 287 289 291 293 295 296 297 299 300 300 300 299 298 297 296 294 293 292 291 291 292 294 293 292 290 282 267 257 249 247 246 244 241 242 242 242
279 278 287 299 299 294 292 291 289 289 290 293 294 296 297 298 299 300 301 302 303 303 303 302 301 298 296 295 293 292 290 289 288 288 288 287 285 283 279 270 263 255 248 245 243 240 242 241 242
268 279 289 299 304 302 304 301 300 300 300 300 301 301 301 303 303 304 304 304 303 302 301 301 299 298 296 295 293 291 289 287 286 284 282 280 278 275 271 266 261 257 251 246 244 242 241 240 241
255 280 290 298 301 301 305 300 301 303 302 301 302 302 302 302 303 304 304 303 302 301 301 300 299 298 296 295 293 292 290 287 285 282 279 276 273 269 266 261 257 254 252 250 248 245 242 240 240
276 289 300 304 307 297 301 299 297 303 301 299 300 302 303 303 303 304 304 304 303 302 302 301 299 298 296 295 293 291 289 287 284 282 278 275 271 266 263 259 256 253 250 249 249 247 244 242 240
288 297 305 303 298 286 295 296 300 301 300 301 302 303 304 304 305 305 306 306 305 304 302 301 299 298 296 295 293 291 288 285 283 281 278 274 270 266 262 259 255 252 250 249 248 248 247 244 241
290 285 276 275 281 289 297 299 305 306 306 308 308 308 309 310 309 310 309 308 307 305 303 302 301 300 298 297 294 292 289 286 283 281 278 276 272 267 263 259 256 253 250 249 248 247 246 245 243
286 282 282 287 292 296 301 308 311 312 314 314 315 315 316 315 314 313 312 311 310 309 308 306 305 304 302 300 297 294 291 288 285 283 280 278 275 271 267 262 257 253 251 249 247 246 246 245 243
292 295 298 300 300 304 308 312 318 320 321 321 321 321 320 319 318 317 316 315 314 313 312 310 308 307 305 302 300 296 293 290 288 285 282 279 276 273 270 265 260 256 252 249 247 245 244 244 243
328 323 322 321 320 319 316 314 327 326 326 326 326 325 323 322 321 320 319 319 318 316 314 312 310 308 306 305 303 300 297 295 292 289 285 281 277 273 269 265 261 257 253 250 247 245 243 242 241
351 344 340 337 334 332 330 325 333 330 330 329 329 328 326 325 325 324 323 323 321 319 317 315 312 310 309 307 306 304 302 300 297 293 290 286 281 276 271 267 262 258 253 250 247 244 243 241 239
Height
5932 5932 5932 5932 5933 5933 5932 5932 5931 5930 5930 5929 5928 5927 5926 5925 5925 5926 5923 5921 5920 5920 5919 5919 5918 5918 5918 5917 5917 5916 5916 5915 5914 5913 5912 5911 5910 5909 5908 5907 5906 5905 5904 5904 5903 5902 5902 5902 5901
5931 5931 5932 5933 5933 5935 5933 5931 5930 5929 5929 5928 5927 5926 5925 5923 5923 5922 5920 5919 5919 5918 5917 5917 5917 5917 5917 5916 5916 5915 5915 5914 5913 5912 5911 5910 5909 5908 5907 5906 5905 5905 5904 5903 5903 5902 5901 5901 5900
5931 5931 5932 5932 5933 5933 5932 5931 5930 5929 5928 5926 5925 5924 5923 5922 5921 5919 5919 5918 5917 5916 5916 5915 5915 5915 5915 5915 5915 5914 5913 5912 5911 5910 5910 5909 5908 5907 5906 5905 5904 5903 5903 5902 5901 5901 5900 5900 5899
5929 5930 5931 5932 5932 5931 5930 5930 5929 5928 5927 5925 5924 5923 5921 5920 5919 5918 5917 5916 5915 5915 5914 5914 5914 5914 5913 5913 5913 5912 5911 5910 5909 5909 5908 5907 5906 5905 5904 5903 5902 5901 5901 5900 5899 5899 5898 5898 5897
5927 5928 5930 5931 5929 5928 5928 5928 5928 5927 5926 5924 5923 5921 5920 5918 5917 5916 5915 5915 5914 5913 5913 5912 5912 5912 5912 5911 5910 5910 5909 5908 5907 5906 5905 5905 5904 5902 5901 5900 5899 5898 5898 5897 5897 5896 5896 5895 5895
5925 5926 5928 5929 5926 5926 5926 5926 5926 5925 5924 5923 5921 5920 5918 5917 5916 5915 5914 5913 5913 5912 5911 5911 5911 5910 5909 5908 5908 5906 5905 5904 5903 5902 5901 5901 5900 5899 5898 5897 5896 5895 5894 5893 5893 5893 5892 5892 5892
5923 5924 5924 5924 5924 5923 5923 5923 5923 5922 5922 5921 5920 5918 5917 5915 5914 5913 5912 5911 5911 5910 5909 5909 5908 5907 5906 5905 5904 5903 5901 5900 5899 5898 5897 5896 5895 5894 5893 5892 5891 5891 5890 5889 5889 5888 5888 5888 5888
5920 5921 5921 5920 5920 5920 5920 5919 5919 5919 5919 5918 5918 5917 5915 5915 5913 5912 5911 5910 5909 5908 5907 5906 5905 5904 5903 5902 5900 5898 5896 5895 5893 5892 5891 5890 5889 5887 5886 5886 5885 5885 5885 5884 5884 5884 5884 5884 5884
5916 5918 5917 5916 5916 5916 5915 5916 5916 5916 5916 5915 5915 5915 5914 5913 5912 5910 5909 5908 5907 5905 5904 5903 5902 5900 5898 5897 5895 5893 5891 5889 5887 5886 5884 5883 5881 5880 5879 5879 5879 5878 5879 5878 5878 5878 5878 5878 5879
5913 5913 5912 5911 5911 5911 5911 5911 5912 5912 5911 5911 5911 5911 5911 5910 5909 5908 5907 5905 5904 5902 5901 5899 5898 5896 5894 5892 5890 5887 5885 5883 5881 5879 5877 5875 5874 5873 5871 5871 5871 5871 5871 5872 5872 5872 5872 5872 5873
5908 5908 5906 5905 5905 5906 5906 5907 5908 5908 5907 5908 5907 5907 5907 5906 5906 5904 5903 5902 5900 5899 5897 5895 5893 5891 5889 5887 5884 5881 5879 5876 5874 5871 5869 5867 5865 5864 5863 5863 5862 5863 5863 5864 5865 5865 5866 5866 5866
5903 5902 5901 5901 5901 5902 5902 5902 5903 5903 5904 5904 5903 5903 5902 5902 5901 5900 5898 5897 5896 5894 5892 5890 5888 5886 5884 5881 5878 5875 5872 5870 5867 5863 5861 5858 5857 5856 5854 5853 5854 5855 5855 5856 5857 5859 5859 5860 5860
5898 5897 5897 5897 5897 5897 5897 5898 5898 5898 5899 5899 5898 5898 5897 5896 5895 5894 5893 5892 5890 5889 5887 5885 5883 5880 5878 5875 5872 5869 5866 5863 5860 5856 5853 5850 5848 5847 5845 5844 5845 5846 5847 5849 5850 5851 5852 5853 5853
5893 5893 5893 5893 5893 5892 5893 5893 5893 5893 5893 5893 5893 5892 5891 5891 5890 5889 5888 5886 5885 5883 5881 5879 5876 5874 5871 5869 5866 5863 5860 5856 5852 5848 5844 5841 5839 5837 5835 5835 5836 5837 5839 5840 5842 5844 5845 5846 5847
5889 5889 5889 5888 5888 5888 5888 5888 5887 5887 5887 5887 5886 5886 5885 5884 5883 5883 5882 5881 5879 5877 5875 5872 5870 5866 5864 5861 5859 5856 5852 5848 5845 5841 5837 5833 5829 5827 5825 5825 5827 5829 5831 5832 5834 5836 5837 5839 5840
5885 5886 5885 5884 5884 5884 5885 5883 5882 5881 5881 5881 5880 5879 5879 5878 5877 5877 5876 5875 5873 5871 5868 5865 5862 5859 5856 5853 5850 5847 5844 5841 5837 5833 5829 5825 5820 5816 5815 5815 5818 5820 5822 5825 5827 5828 5830 5832 5833
5883 5885 5882 5881 5880 5880 5880 5878 5877 5876 5876 5875 5874 5874 5873 5873 5872 5872 5870 5869 5866 5863 5860 5857 5854 5850 5847 5844 5842 5839 5836 5832 5829 5826 5822 5817 5812 5808 5806 5807 5809 5811 5814 5817 5819 5821 5823 5824 5826
5882 5882 5879 5878 5877 5876 5875 5874 5873 5872 5872 5871 5870 5869 5869 5868 5867 5866 5864 5861 5858 5855 5852 5848 5845 5841 5838 5835 5833 5830 5827 5824 5821 5818 5814 5810 5804 5800 5799 5799 5800 5803 5806 5809 5811 5813 5815 5817 5819
5877 5877 5877 5875 5874 5873 5871 5870 5870 5869 5868 5867 5866 5865 5864 5863 5861 5859 5856 5853 5850 5847 5843 5840 5836 5833 5830 5827 5824 5821 5819 5816 5813 5810 5807 5803 5799 5795 5793 5793 5793 5795 5798 5801 5803 5805 5807 5810 5812
5874 5875 5873 5872 5871 5869 5868 5867 5865 5864 5864 5863 5862 5860 5859 5857 5855 5852 5849 5846 5842 5838 5835 5831 5828 5824 5821 5818 5815 5813 5810 5808 5805 5802 5799 5796 5793 5790 5789 5788 5788 5789 5791 5793 5795 5797 5800 5802 5805
5873 5873 5872 5869 5867 5866 5865 5863 5862 5861 5860 5858 5857 5855 5853 5851 5848 5845 5842 5838 5834 5831 5827 5823 5819 5816 5812 5809 5806 5804 5801 5799 5796 5793 5791 5789 5787 5785 5784 5783 5782 5782 5783 5784 5786 5788 5791 5794 5797
5872 5870 5869 5867 5866 5864 5863 5862 5860 5857 5856 5854 5852 5850 5848 5845 5842 5839 5835 5831 5827 5823 5819 5815 5811 5807 5803 5800 5797 5793 5791 5788 5786 5783 5781 5780 5778 5777 5776 5775 5775 5775 5775 5777 5778 5780 5782 5785 5788
5868 5868 5866 5865 5864 5863 5861 5860 5857 5854 5853 5851 5848 5846 5843 5840 5837 5833 5829 5825 5820 5816 5811 5807 5803 5798 5794 5790 5786 5782 5779 5776 5774 5772 5770 5769 5768 5767 5766 5766 5766 5766 5767 5768 5769 5771 5774 5776 5779
5866 5866 5865 5863 5862 5862 5859 5858 5854 5852 5849 5846 5844 5841 5838 5835 5831 5827 5822 5818 5813 5808 5803 5798 5794 5789 5784 5779 5775 5771 5768 5764 5761 5759 5758 5757 5756 5756 5755 5755 5755 5756 5757 5758 5760 5762 5764 5767 5769
5865 5865 5865 5863 5861 5859 5856 5854 5852 5848 5845 5842 5839 5836 5833 5829 5824 5820 5815 5810 5805 5800 5795 5789 5784 5779 5773 5768 5763 5759 5755 5751 5748 5746 5744 5743 5742 5742 5742 5742 5742 5743 5745 5747 5749 5751 5754 5756 5759
5863 5863 5864 5863 5861 5857 5852 5850 5848 5844 5841 5838 5834 5831 5827 5822 5817 5812 5807 5802 5797 5791 5785 5779 5773 5768 5762 5756 5751 5746 5742 5739 5736 5733 5730 5728 5727 5727 5726 5727 5728 5729 5731 5733 5736 5739 5742 5745 5748
5861 5860 5859 5858 5856 5854 5851 5847 5844 5840 5837 5833 5829 5825 5820 5815 5810 5804 5799 5793 5787 5780 5774 5768 5762 5756 5750 5745 5740 5735 5731 5727 5723 5720 5717 5715 5713 5712 5711 5711 5712 5713 5715 5718 5721 5725 5728 5732 5736
5859 5857 5856 5855 5853 5852 5849 5844 5840 5836 5832 5828 5823 5819 5814 5808 5803 5796 5790 5783 5777 5770 5763 5757 5750 5744 5738 5733 5728 5723 5719 5714 5711 5707 5704 5701 5698 5696 5695 5694 5695 5696 5698 5701 5704 5708 5713 5717 5722
5856 5855 5853 5852 5850 5848 5846 5843 5837 5832 5828 5823 5818 5813 5808 5802 5796 5789 5782 5775 5768 5760 5753 5746 5740 5733 5727 5722 5716 5711 5706 5701 5696 5692 5688 5684 5681 5679 5677 5676 5676 5677 5679 5682 5685 5690 5695 5700 5706
5854 5853 5851 5850 5847 5844 5842 5841 5833 5828 5824 5819 5814 5808 5802 5795 5789 5781 5773 5766 5758 5750 5743 5736 5729 5722 5716 5710 5704 5698 5692 5687 5681 5675 5670 5665 5661 5658 5656 5655 5655 5656 5658 5662 5665 5670 5675 5681 5688